QPF
0.01 0.04 0.06 0.03 0.04 0.05 0.08 0.09 0.06 0.04 0.07 0.07 0.04 0.04 0.03 0.03 0.04 0.04 0.01 0.01 0.01 0.02 0.04 0.05 0.05 0.08 0.14 0.19 0.13 0.06 0.06 0.06 0.06 0.05 0.04 0.03 0.04 0.05 0.05 0.05 0.05 0.06 0.07 0.07 0.08 0.08 0.07 0.06 0.06
0.01 0.03 0.06 0.04 0.04 0.06 0.08 0.06 0.04 0.03 0.04 0.03 0.02 0.01 0.02 0.02 0.02 0.02 0.01 0.01 0.01 0.02 0.03 0.05 0.05 0.05 0.06 0.08 0.06 0.05 0.05 0.05 0.04 0.04 0.04 0.03 0.04 0.04 0.03 0.03 0.03 0.03 0.04 0.04 0.07 0.06 0.07 0.05 0.04
0.02 0.03 0.03 0.03 0.03 0.05 0.08 0.04 0.03 0.03 0.03 0.02 0.01 0.01 0.02 0.02 0.02 0.01 0.00 0.00 0.01 0.02 0.03 0.04 0.04 0.05 0.05 0.06 0.05 0.05 0.05 0.05 0.05 0.04 0.04 0.04 0.03 0.03 0.03 0.04 0.03 0.04 0.05 0.04 0.06 0.06 0.06 0.06 0.06
0.03 0.02 0.02 0.03 0.04 0.03 0.04 0.04 0.03 0.03 0.02 0.02 0.01 0.01 0.01 0.01 0.01 0.01 0.00 0.01 0.01 0.01 0.02 0.03 0.04 0.05 0.07 0.06 0.05 0.06 0.04 0.04 0.05 0.04 0.04 0.03 0.02 0.02 0.03 0.04 0.04 0.04 0.05 0.05 0.06 0.05 0.05 0.05 0.05
0.03 0.03 0.02 0.03 0.03 0.03 0.02 0.02 0.04 0.03 0.02 0.02 0.01 0.01 0.02 0.02 0.00 0.01 0.00 0.00 0.01 0.01 0.01 0.02 0.04 0.06 0.06 0.05 0.04 0.05 0.04 0.05 0.05 0.04 0.03 0.02 0.02 0.02 0.03 0.04 0.05 0.05 0.06 0.07 0.07 0.05 0.04 0.04 0.04
0.03 0.03 0.02 0.03 0.03 0.02 0.02 0.02 0.03 0.03 0.01 0.01 0.01 0.01 0.03 0.04 0.01 0.01 0.01 0.00 0.00 0.01 0.01 0.02 0.03 0.04 0.05 0.05 0.05 0.04 0.05 0.04 0.04 0.04 0.03 0.02 0.02 0.03 0.05 0.06 0.06 0.06 0.06 0.06 0.07 0.05 0.05 0.05 0.05
0.03 0.06 0.03 0.02 0.02 0.03 0.02 0.01 0.01 0.01 0.01 0.01 0.01 0.02 0.02 0.05 0.04 0.03 0.02 0.01 0.01 0.01 0.01 0.02 0.02 0.03 0.05 0.08 0.08 0.06 0.05 0.04 0.04 0.04 0.03 0.03 0.03 0.03 0.06 0.07 0.06 0.06 0.07 0.07 0.06 0.06 0.07 0.06 0.07
0.05 0.08 0.03 0.02 0.02 0.03 0.04 0.04 0.01 0.01 0.01 0.01 0.01 0.01 0.02 0.04 0.03 0.03 0.03 0.02 0.02 0.02 0.02 0.02 0.01 0.02 0.03 0.07 0.08 0.08 0.06 0.05 0.05 0.05 0.05 0.04 0.04 0.05 0.05 0.06 0.05 0.06 0.06 0.07 0.06 0.07 0.08 0.10 0.12
0.05 0.07 0.02 0.02 0.01 0.01 0.02 0.02 0.02 0.01 0.00 0.01 0.01 0.01 0.02 0.03 0.03 0.03 0.03 0.02 0.02 0.01 0.01 0.02 0.03 0.02 0.02 0.03 0.05 0.06 0.05 0.05 0.04 0.04 0.04 0.03 0.02 0.02 0.03 0.04 0.04 0.05 0.06 0.06 0.06 0.06 0.06 0.08 0.11
0.04 0.04 0.02 0.01 0.01 0.01 0.01 0.01 0.02 0.01 0.01 0.01 0.01 0.01 0.01 0.01 0.01 0.01 0.01 0.01 0.01 0.01 0.02 0.02 0.02 0.01 0.01 0.02 0.04 0.04 0.03 0.03 0.02 0.03 0.04 0.02 0.01 0.01 0.01 0.03 0.04 0.04 0.05 0.05 0.05 0.06 0.06 0.06 0.07
0.05 0.04 0.01 0.00 0.00 0.00 0.01 0.02 0.01 0.01 0.00 0.00 0.00 0.00 0.00 0.00 0.00 0.01 0.01 0.00 0.01 0.03 0.02 0.01 0.01 0.01 0.01 0.01 0.01 0.02 0.02 0.02 0.02 0.02 0.02 0.03 0.03 0.02 0.01 0.01 0.04 0.03 0.03 0.05 0.05 0.05 0.07 0.06 0.07
0.02 0.02 0.01 0.01 0.00 0.01 0.01 0.01 0.01 0.00 0.00 0.00 0.00 0.00 0.00 0.00 0.00 0.00 0.00 0.01 0.02 0.03 0.02 0.02 0.02 0.02 0.02 0.01 0.01 0.02 0.01 0.02 0.02 0.01 0.01 0.01 0.01 0.01 0.01 0.01 0.01 0.01 0.02 0.03 0.02 0.02 0.03 0.04 0.05
0.01 0.01 0.01 0.01 0.01 0.00 0.00 0.00 0.00 0.01 0.01 0.00 0.00 0.00 0.00 0.00 0.00 0.01 0.01 0.01 0.01 0.02 0.02 0.02 0.02 0.02 0.02 0.02 0.01 0.02 0.02 0.03 0.03 0.02 0.01 0.01 0.00 0.00 0.00 0.01 0.01 0.01 0.01 0.01 0.01 0.02 0.02 0.03 0.05
0.01 0.01 0.01 0.00 0.01 0.00 0.00 0.00 0.00 0.01 0.01 0.01 0.00 0.00 0.00 0.00 0.00 0.00 0.00 0.01 0.01 0.02 0.03 0.03 0.02 0.02 0.02 0.02 0.01 0.02 0.03 0.02 0.02 0.02 0.01 0.01 0.01 0.00 0.00 0.01 0.00 0.01 0.01 0.01 0.01 0.02 0.03 0.06 0.06
0.01 0.01 0.01 0.00 0.00 0.00 0.00 0.00 0.00 0.01 0.01 0.01 0.00 0.00 0.00 0.01 0.00 0.00 0.01 0.01 0.03 0.04 0.05 0.04 0.04 0.03 0.03 0.02 0.01 0.02 0.02 0.03 0.03 0.03 0.02 0.01 0.01 0.01 0.01 0.01 0.01 0.01 0.01 0.01 0.02 0.03 0.03 0.04 0.05
0.01 0.01 0.00 0.00 0.00 0.00 0.00 0.00 0.00 0.00 0.01 0.01 0.00 0.00 0.00 0.01 0.01 0.01 0.01 0.02 0.03 0.04 0.07 0.07 0.05 0.04 0.04 0.02 0.03 0.02 0.03 0.03 0.02 0.02 0.02 0.02 0.01 0.01 0.02 0.02 0.02 0.02 0.01 0.01 0.01 0.02 0.03 0.03 0.03
0.00 0.00 0.00 0.00 0.00 0.00 0.00 0.00 0.00 0.01 0.01 0.01 0.01 0.00 0.00 0.01 0.01 0.01 0.01 0.02 0.03 0.04 0.10 0.10 0.06 0.05 0.06 0.05 0.04 0.03 0.03 0.04 0.03 0.02 0.01 0.02 0.02 0.02 0.03 0.03 0.03 0.04 0.04 0.02 0.02 0.02 0.03 0.02 0.02
0.00 0.00 0.00 0.01 0.00 0.01 0.02 0.01 0.01 0.00 0.01 0.01 0.01 0.01 0.01 0.01 0.02 0.01 0.01 0.01 0.02 0.02 0.05 0.05 0.04 0.06 0.08 0.06 0.05 0.04 0.02 0.02 0.03 0.02 0.01 0.02 0.02 0.02 0.02 0.03 0.03 0.04 0.04 0.03 0.03 0.02 0.01 0.01 0.01
0.00 0.00 0.01 0.00 0.00 0.01 0.01 0.01 0.01 0.01 0.01 0.01 0.02 0.02 0.02 0.02 0.02 0.02 0.01 0.01 0.02 0.04 0.05 0.06 0.07 0.08 0.08 0.06 0.04 0.02 0.02 0.02 0.01 0.01 0.00 0.01 0.01 0.01 0.02 0.02 0.02 0.02 0.02 0.02 0.01 0.01 0.02 0.02 0.01
0.00 0.00 0.00 0.01 0.01 0.01 0.02 0.02 0.02 0.01 0.01 0.01 0.03 0.03 0.02 0.02 0.02 0.01 0.01 0.02 0.03 0.05 0.06 0.07 0.07 0.07 0.07 0.06 0.04 0.02 0.02 0.02 0.02 0.01 0.00 0.00 0.01 0.01 0.02 0.02 0.02 0.01 0.01 0.01 0.01 0.01 0.01 0.02 0.02
0.00 0.00 0.01 0.01 0.01 0.02 0.04 0.03 0.02 0.02 0.02 0.01 0.02 0.03 0.03 0.02 0.02 0.02 0.02 0.02 0.03 0.05 0.07 0.08 0.08 0.06 0.06 0.06 0.05 0.02 0.02 0.02 0.01 0.01 0.01 0.00 0.01 0.01 0.01 0.02 0.03 0.02 0.02 0.01 0.02 0.02 0.02 0.03 0.03
0.00 0.01 0.01 0.01 0.01 0.02 0.02 0.02 0.02 0.02 0.02 0.02 0.03 0.03 0.03 0.03 0.03 0.02 0.02 0.02 0.02 0.05 0.06 0.04 0.05 0.05 0.05 0.06 0.04 0.02 0.02 0.02 0.01 0.01 0.01 0.02 0.02 0.02 0.02 0.02 0.02 0.03 0.03 0.03 0.04 0.04 0.04 0.04 0.04
0.00 0.00 0.01 0.02 0.01 0.01 0.01 0.01 0.02 0.02 0.02 0.02 0.02 0.02 0.02 0.03 0.03 0.03 0.03 0.03 0.05 0.09 0.09 0.05 0.04 0.06 0.07 0.06 0.04 0.03 0.02 0.01 0.01 0.01 0.02 0.02 0.03 0.03 0.03 0.03 0.03 0.03 0.04 0.04 0.06 0.05 0.04 0.04 0.06
0.01 0.01 0.02 0.02 0.02 0.01 0.02 0.02 0.01 0.01 0.01 0.01 0.01 0.01 0.01 0.02 0.03 0.02 0.03 0.06 0.12 0.10 0.06 0.06 0.07 0.09 0.13 0.08 0.05 0.02 0.02 0.01 0.01 0.01 0.02 0.02 0.02 0.02 0.02 0.02 0.02 0.02 0.02 0.03 0.04 0.04 0.05 0.05 0.06
0.01 0.02 0.02 0.01 0.01 0.01 0.01 0.01 0.00 0.01 0.01 0.01 0.01 0.01 0.01 0.01 0.03 0.03 0.02 0.06 0.10 0.08 0.06 0.05 0.08 0.14 0.18 0.12 0.06 0.03 0.03 0.02 0.02 0.03 0.03 0.02 0.02 0.02 0.01 0.01 0.01 0.01 0.01 0.02 0.03 0.03 0.04 0.05 0.05
0.01 0.01 0.01 0.01 0.01 0.01 0.01 0.01 0.00 0.01 0.01 0.01 0.01 0.01 0.01 0.02 0.03 0.04 0.03 0.04 0.06 0.05 0.05 0.05 0.05 0.07 0.09 0.10 0.08 0.09 0.08 0.05 0.03 0.04 0.03 0.03 0.03 0.03 0.02 0.02 0.02 0.01 0.01 0.03 0.04 0.04 0.04 0.05 0.05
0.00 0.00 0.01 0.01 0.01 0.00 0.01 0.01 0.01 0.01 0.02 0.02 0.02 0.01 0.02 0.02 0.03 0.03 0.02 0.03 0.05 0.04 0.04 0.05 0.05 0.06 0.07 0.08 0.07 0.07 0.08 0.09 0.09 0.09 0.07 0.04 0.03 0.02 0.02 0.02 0.02 0.02 0.03 0.04 0.07 0.07 0.06 0.05 0.05
0.00 0.01 0.01 0.01 0.01 0.01 0.01 0.01 0.01 0.01 0.02 0.02 0.02 0.02 0.02 0.02 0.03 0.04 0.03 0.03 0.04 0.03 0.04 0.04 0.05 0.04 0.06 0.08 0.05 0.05 0.05 0.07 0.08 0.09 0.09 0.07 0.05 0.05 0.04 0.04 0.05 0.05 0.04 0.03 0.04 0.05 0.07 0.08 0.07
0.01 0.01 0.01 0.01 0.01 0.01 0.01 0.01 0.01 0.01 0.02 0.01 0.02 0.03 0.04 0.04 0.05 0.05 0.04 0.03 0.03 0.02 0.04 0.05 0.06 0.05 0.04 0.05 0.08 0.13 0.12 0.10 0.10 0.09 0.08 0.08 0.07 0.06 0.06 0.05 0.06 0.06 0.06 0.05 0.04 0.04 0.04 0.07 0.10
0.01 0.00 0.01 0.01 0.01 0.01 0.01 0.01 0.01 0.01 0.01 0.01 0.01 0.02 0.04 0.05 0.05 0.04 0.03 0.02 0.02 0.02 0.02 0.03 0.02 0.02 0.03 0.04 0.07 0.10 0.14 0.17 0.14 0.12 0.14 0.13 0.09 0.07 0.06 0.04 0.04 0.04 0.04 0.03 0.04 0.04 0.04 0.04 0.05
MSLP
1007.67 1008.68 1009.73 1010.64 1011.25 1011.47 1011.26 1010.69 1009.90 1009.04 1008.28 1007.72 1007.43 1007.38 1007.49 1007.64 1007.74 1007.68 1007.45 1007.08 1006.64 1006.23 1005.92 1005.80 1005.87 1006.11 1006.46 1006.84 1007.20 1007.49 1007.70 1007.85 1007.99 1008.14 1008.36 1008.65 1009.00 1009.39 1009.78 1010.14 1010.45 1010.71 1010.91 1011.08 1011.24 1011.41 1011.60 1011.81 1012.03
1008.14 1009.29 1010.40 1011.27 1011.76 1011.78 1011.34 1010.53 1009.51 1008.46 1007.56 1006.92 1006.59 1006.53 1006.66 1006.86 1007.01 1007.04 1006.90 1006.65 1006.33 1006.03 1005.84 1005.80 1005.94 1006.22 1006.59 1006.98 1007.35 1007.65 1007.88 1008.07 1008.24 1008.44 1008.67 1008.97 1009.31 1009.68 1010.05 1010.39 1010.69 1010.95 1011.17 1011.37 1011.56 1011.75 1011.95 1012.16 1012.36
1008.79 1010.02 1011.12 1011.90 1012.22 1012.02 1011.35 1010.33 1009.12 1007.94 1006.95 1006.27 1005.92 1005.86 1006.01 1006.25 1006.45 1006.54 1006.48 1006.32 1006.11 1005.92 1005.82 1005.86 1006.06 1006.37 1006.76 1007.16 1007.53 1007.84 1008.10 1008.31 1008.51 1008.73 1008.98 1009.27 1009.59 1009.94 1010.28 1010.60 1010.90 1011.17 1011.42 1011.66 1011.89 1012.11 1012.32 1012.53 1012.72
1009.53 1010.78 1011.80 1012.43 1012.55 1012.14 1011.26 1010.07 1008.74 1007.49 1006.47 1005.79 1005.46 1005.44 1005.62 1005.88 1006.12 1006.26 1006.27 1006.18 1006.05 1005.95 1005.93 1006.04 1006.27 1006.60 1006.99 1007.37 1007.73 1008.05 1008.31 1008.54 1008.76 1009.00 1009.25 1009.54 1009.85 1010.16 1010.48 1010.79 1011.09 1011.39 1011.68 1011.96 1012.23 1012.49 1012.72 1012.93 1013.11
1010.28 1011.45 1012.34 1012.77 1012.68 1012.06 1011.02 1009.72 1008.33 1007.08 1006.11 1005.48 1005.22 1005.25 1005.47 1005.77 1006.04 1006.21 1006.27 1006.25 1006.19 1006.16 1006.20 1006.35 1006.59 1006.91 1007.26 1007.61 1007.94 1008.23 1008.48 1008.72 1008.96 1009.21 1009.48 1009.77 1010.07 1010.37 1010.68 1010.98 1011.29 1011.61 1011.93 1012.26 1012.58 1012.87 1013.11 1013.32 1013.48
1010.90 1011.93 1012.62 1012.84 1012.53 1011.75 1010.59 1009.24 1007.89 1006.71 1005.84 1005.32 1005.15 1005.26 1005.53 1005.86 1006.16 1006.36 1006.47 1006.50 1006.50 1006.53 1006.61 1006.77 1007.00 1007.28 1007.57 1007.85 1008.12 1008.36 1008.60 1008.84 1009.09 1009.36 1009.66 1009.96 1010.27 1010.57 1010.87 1011.17 1011.49 1011.82 1012.18 1012.54 1012.89 1013.20 1013.46 1013.67 1013.81
1011.30 1012.14 1012.59 1012.58 1012.09 1011.18 1009.98 1008.66 1007.40 1006.36 1005.64 1005.26 1005.20 1005.39 1005.71 1006.07 1006.38 1006.61 1006.76 1006.84 1006.90 1006.98 1007.09 1007.25 1007.45 1007.67 1007.88 1008.08 1008.26 1008.45 1008.65 1008.88 1009.16 1009.47 1009.80 1010.13 1010.46 1010.77 1011.07 1011.37 1011.69 1012.03 1012.40 1012.78 1013.15 1013.48 1013.75 1013.94 1014.07
1011.43 1012.04 1012.26 1012.04 1011.40 1010.42 1009.24 1008.02 1006.91 1006.04 1005.49 1005.26 1005.31 1005.56 1005.91 1006.28 1006.61 1006.86 1007.04 1007.18 1007.30 1007.42 1007.57 1007.73 1007.89 1008.04 1008.16 1008.27 1008.37 1008.50 1008.67 1008.90 1009.20 1009.55 1009.93 1010.30 1010.66 1010.99 1011.29 1011.59 1011.90 1012.23 1012.59 1012.97 1013.34 1013.68 1013.94 1014.13 1014.24
1011.31 1011.69 1011.70 1011.30 1010.57 1009.58 1008.47 1007.39 1006.47 1005.80 1005.42 1005.32 1005.45 1005.73 1006.08 1006.44 1006.75 1007.01 1007.22 1007.41 1007.59 1007.77 1007.96 1008.13 1008.27 1008.36 1008.42 1008.44 1008.48 1008.55 1008.69 1008.93 1009.26 1009.65 1010.08 1010.50 1010.90 1011.24 1011.55 1011.84 1012.12 1012.43 1012.77 1013.13 1013.49 1013.81 1014.07 1014.25 1014.35
1011.00 1011.18 1011.00 1010.49 1009.72 1008.78 1007.80 1006.89 1006.17 1005.68 1005.45 1005.45 1005.61 1005.88 1006.19 1006.50 1006.77 1007.01 1007.24 1007.48 1007.72 1007.97 1008.21 1008.41 1008.56 1008.63 1008.64 1008.61 1008.59 1008.63 1008.76 1009.01 1009.36 1009.80 1010.28 1010.74 1011.17 1011.54 1011.84 1012.11 1012.36 1012.63 1012.93 1013.26 1013.59 1013.90 1014.15 1014.32 1014.40
1010.63 1010.64 1010.33 1009.76 1009.00 1008.15 1007.32 1006.61 1006.08 1005.75 1005.63 1005.67 1005.82 1006.03 1006.25 1006.47 1006.67 1006.87 1007.10 1007.37 1007.67 1007.99 1008.30 1008.56 1008.73 1008.82 1008.82 1008.78 1008.75 1008.77 1008.90 1009.16 1009.54 1010.01 1010.52 1011.02 1011.47 1011.85 1012.15 1012.39 1012.61 1012.84 1013.10 1013.39 1013.69 1013.97 1014.20 1014.36 1014.43
1010.31 1010.19 1009.80 1009.21 1008.51 1007.79 1007.14 1006.61 1006.24 1006.04 1005.98 1006.02 1006.11 1006.20 1006.30 1006.38 1006.48 1006.62 1006.83 1007.11 1007.46 1007.85 1008.23 1008.56 1008.80 1008.93 1008.97 1008.96 1008.94 1008.98 1009.12 1009.39 1009.78 1010.26 1010.79 1011.31 1011.77 1012.14 1012.44 1012.66 1012.86 1013.05 1013.27 1013.51 1013.78 1014.04 1014.25 1014.39 1014.45
1010.15 1009.94 1009.51 1008.94 1008.33 1007.75 1007.26 1006.90 1006.67 1006.55 1006.51 1006.49 1006.48 1006.44 1006.37 1006.31 1006.28 1006.34 1006.49 1006.77 1007.14 1007.58 1008.03 1008.44 1008.76 1008.97 1009.08 1009.12 1009.15 1009.22 1009.38 1009.65 1010.05 1010.53 1011.04 1011.55 1012.00 1012.38 1012.66 1012.88 1013.05 1013.22 1013.41 1013.63 1013.86 1014.09 1014.29 1014.41 1014.46
1010.20 1009.92 1009.48 1008.98 1008.47 1008.03 1007.69 1007.46 1007.33 1007.25 1007.18 1007.09 1006.94 1006.75 1006.52 1006.30 1006.14 1006.09 1006.18 1006.42 1006.79 1007.25 1007.75 1008.23 1008.63 1008.93 1009.13 1009.25 1009.35 1009.46 1009.64 1009.92 1010.29 1010.74 1011.22 1011.70 1012.13 1012.49 1012.77 1012.99 1013.16 1013.33 1013.50 1013.70 1013.92 1014.13 1014.30 1014.41 1014.44
1010.43 1010.11 1009.69 1009.26 1008.86 1008.56 1008.34 1008.22 1008.14 1008.07 1007.95 1007.76 1007.49 1007.14 1006.76 1006.40 1006.11 1005.95 1005.95 1006.13 1006.47 1006.92 1007.44 1007.96 1008.43 1008.81 1009.11 1009.32 1009.49 1009.65 1009.86 1010.12 1010.46 1010.86 1011.29 1011.72 1012.12 1012.46 1012.74 1012.97 1013.16 1013.34 1013.52 1013.72 1013.92 1014.12 1014.27 1014.36 1014.37
1010.76 1010.44 1010.06 1009.71 1009.43 1009.24 1009.14 1009.08 1009.03 1008.94 1008.76 1008.47 1008.07 1007.60 1007.10 1006.61 1006.21 1005.96 1005.87 1005.96 1006.23 1006.64 1007.13 1007.66 1008.17 1008.62 1009.00 1009.30 1009.54 1009.76 1009.98 1010.23 1010.53 1010.86 1011.23 1011.60 1011.95 1012.28 1012.56 1012.81 1013.04 1013.24 1013.45 1013.66 1013.86 1014.04 1014.18 1014.25 1014.25
1011.09 1010.78 1010.48 1010.23 1010.08 1010.01 1009.99 1009.99 1009.94 1009.80 1009.55 1009.17 1008.68 1008.11 1007.51 1006.94 1006.46 1006.12 1005.94 1005.94 1006.12 1006.44 1006.87 1007.37 1007.88 1008.37 1008.81 1009.19 1009.50 1009.77 1010.01 1010.24 1010.49 1010.76 1011.05 1011.36 1011.67 1011.97 1012.26 1012.54 1012.80 1013.05 1013.28 1013.51 1013.72 1013.89 1014.02 1014.08 1014.07
1011.30 1011.06 1010.87 1010.77 1010.75 1010.80 1010.87 1010.89 1010.83 1010.64 1010.30 1009.84 1009.26 1008.63 1007.98 1007.36 1006.84 1006.43 1006.17 1006.07 1006.14 1006.35 1006.68 1007.11 1007.59 1008.09 1008.56 1008.99 1009.36 1009.68 1009.94 1010.17 1010.37 1010.58 1010.80 1011.04 1011.30 1011.59 1011.88 1012.18 1012.48 1012.76 1013.04 1013.28 1013.50 1013.67 1013.79 1013.85 1013.84
1011.34 1011.22 1011.19 1011.27 1011.42 1011.60 1011.75 1011.79 1011.69 1011.43 1011.01 1010.46 1009.82 1009.14 1008.47 1007.84 1007.29 1006.85 1006.53 1006.34 1006.29 1006.37 1006.59 1006.91 1007.33 1007.80 1008.28 1008.75 1009.17 1009.52 1009.81 1010.03 1010.21 1010.36 1010.52 1010.70 1010.92 1011.17 1011.46 1011.78 1012.10 1012.41 1012.71 1012.97 1013.19 1013.36 1013.48 1013.54 1013.54
1011.18 1011.24 1011.44 1011.74 1012.09 1012.42 1012.64 1012.69 1012.54 1012.20 1011.68 1011.04 1010.34 1009.63 1008.95 1008.33 1007.80 1007.34 1006.98 1006.71 1006.55 1006.51 1006.59 1006.79 1007.12 1007.53 1008.00 1008.49 1008.94 1009.33 1009.65 1009.88 1010.03 1010.15 1010.25 1010.38 1010.54 1010.76 1011.04 1011.35 1011.68 1012.00 1012.31 1012.58 1012.80 1012.97 1013.09 1013.16 1013.18
1010.89 1011.19 1011.65 1012.21 1012.79 1013.26 1013.56 1013.61 1013.40 1012.95 1012.32 1011.58 1010.81 1010.07 1009.40 1008.81 1008.30 1007.87 1007.48 1007.16 1006.91 1006.75 1006.69 1006.77 1006.99 1007.33 1007.77 1008.24 1008.72 1009.14 1009.47 1009.71 1009.86 1009.95 1010.01 1010.09 1010.20 1010.37 1010.61 1010.89 1011.20 1011.52 1011.81 1012.07 1012.28 1012.45 1012.57 1012.65 1012.70
1010.57 1011.14 1011.90 1012.74 1013.53 1014.16 1014.51 1014.55 1014.26 1013.69 1012.93 1012.08 1011.24 1010.47 1009.80 1009.25 1008.78 1008.38 1008.01 1007.66 1007.34 1007.07 1006.90 1006.86 1006.97 1007.22 1007.60 1008.05 1008.52 1008.95 1009.30 1009.55 1009.69 1009.76 1009.79 1009.81 1009.87 1009.98 1010.16 1010.40 1010.67 1010.94 1011.20 1011.44 1011.63 1011.78 1011.90 1012.00 1012.09
1010.32 1011.18 1012.23 1013.33 1014.33 1015.08 1015.48 1015.48 1015.10 1014.40 1013.50 1012.54 1011.62 1010.81 1010.15 1009.64 1009.23 1008.87 1008.53 1008.17 1007.81 1007.48 1007.21 1007.05 1007.05 1007.21 1007.52 1007.92 1008.36 1008.78 1009.13 1009.38 1009.51 1009.56 1009.55 1009.52 1009.52 1009.56 1009.68 1009.84 1010.04 1010.26 1010.47 1010.65 1010.81 1010.94 1011.06 1011.18 1011.29
1010.25 1011.36 1012.66 1013.99 1015.15 1015.99 1016.41 1016.36 1015.87 1015.04 1014.02 1012.95 1011.95 1011.11 1010.46 1009.98 1009.63 1009.34 1009.04 1008.71 1008.33 1007.95 1007.61 1007.36 1007.26 1007.32 1007.53 1007.86 1008.25 1008.64 1008.96 1009.19 1009.31 1009.32 1009.27 1009.19 1009.12 1009.10 1009.13 1009.21 1009.33 1009.46 1009.60 1009.72 1009.84 1009.94 1010.05 1010.17 1010.31
1010.37 1011.69 1013.18 1014.66 1015.92 1016.81 1017.21 1017.09 1016.51 1015.57 1014.44 1013.29 1012.24 1011.38 1010.75 1010.32 1010.03 1009.80 1009.56 1009.26 1008.89 1008.49 1008.09 1007.77 1007.57 1007.53 1007.65 1007.89 1008.20 1008.53 1008.81 1009.00 1009.08 1009.05 1008.96 1008.83 1008.69 1008.59 1008.54 1008.53 1008.56 1008.60 1008.66 1008.71 1008.76 1008.82 1008.90 1009.02 1009.17
1010.68 1012.12 1013.71 1015.26 1016.55 1017.43 1017.78 1017.60 1016.95 1015.94 1014.75 1013.55 1012.48 1011.64 1011.04 1010.66 1010.44 1010.27 1010.09 1009.84 1009.49 1009.08 1008.65 1008.27 1008.00 1007.86 1007.88 1008.02 1008.24 1008.48 1008.69 1008.82 1008.84 1008.78 1008.63 1008.45 1008.26 1008.08 1007.95 1007.85 1007.78 1007.74 1007.70 1007.68 1007.66 1007.66 1007.70 1007.79 1007.92
1011.09 1012.57 1014.17 1015.69 1016.94 1017.76 1018.06 1017.83 1017.13 1016.10 1014.91 1013.73 1012.70 1011.90 1011.36 1011.04 1010.88 1010.78 1010.65 1010.44 1010.12 1009.72 1009.28 1008.85 1008.52 1008.30 1008.21 1008.25 1008.37 1008.51 1008.63 1008.68 1008.65 1008.53 1008.34 1008.11 1007.86 1007.63 1007.42 1007.24 1007.09 1006.96 1006.84 1006.72 1006.63 1006.56 1006.53 1006.56 1006.65
1011.50 1012.92 1014.44 1015.87 1017.02 1017.75 1017.99 1017.73 1017.04 1016.05 1014.93 1013.84 1012.90 1012.19 1011.72 1011.47 1011.37 1011.32 1011.23 1011.05 1010.76 1010.37 1009.93 1009.48 1009.09 1008.81 1008.64 1008.58 1008.60 1008.64 1008.66 1008.64 1008.54 1008.36 1008.13 1007.85 1007.56 1007.28 1007.02 1006.78 1006.55 1006.34 1006.13 1005.93 1005.74 1005.58 1005.47 1005.43 1005.44
1011.80 1013.10 1014.47 1015.73 1016.73 1017.36 1017.54 1017.29 1016.67 1015.79 1014.81 1013.87 1013.07 1012.48 1012.11 1011.94 1011.88 1011.86 1011.80 1011.64 1011.37 1010.99 1010.55 1010.10 1009.69 1009.36 1009.13 1008.99 1008.91 1008.86 1008.80 1008.70 1008.53 1008.30 1008.02 1007.72 1007.40 1007.08 1006.77 1006.48 1006.20 1005.92 1005.63 1005.34 1005.06 1004.80 1004.59 1004.43 1004.35
1011.93 1013.06 1014.22 1015.28 1016.12 1016.63 1016.78 1016.57 1016.06 1015.34 1014.56 1013.81 1013.20 1012.76 1012.50 1012.39 1012.37 1012.36 1012.30 1012.14 1011.88 1011.52 1011.09 1010.65 1010.24 1009.90 1009.63 1009.43 1009.28 1009.15 1009.01 1008.84 1008.61 1008.33 1008.02 1007.68 1007.34 1007.00 1006.67 1006.34 1006.01 1005.67 1005.31 1004.93 1004.56 1004.19 1003.86 1003.58 1003.37
Thickness
5807 5805 5802 5792 5775 5760 5758 5772 5783 5785 5787 5795 5798 5793 5786 5780 5774 5771 5793 5801 5800 5799 5798 5796 5794 5792 5792 5791 5789 5789 5789 5788 5787 5786 5785 5784 5783 5783 5782 5781 5780 5779 5777 5776 5775 5774 5772 5771 5770
5809 5807 5798 5785 5764 5749 5760 5779 5783 5789 5796 5801 5800 5795 5787 5785 5791 5792 5796 5799 5800 5799 5797 5795 5794 5792 5791 5790 5789 5788 5788 5787 5786 5785 5784 5784 5783 5782 5781 5780 5779 5778 5777 5776 5775 5774 5772 5772 5770
5812 5808 5791 5777 5764 5756 5767 5785 5789 5797 5804 5802 5796 5795 5790 5787 5793 5795 5799 5801 5800 5798 5796 5795 5793 5792 5790 5789 5788 5787 5786 5786 5785 5784 5783 5783 5782 5781 5780 5779 5779 5778 5777 5776 5775 5774 5773 5772 5771
5811 5800 5789 5774 5768 5777 5784 5792 5797 5797 5802 5803 5797 5789 5793 5801 5801 5801 5803 5801 5798 5796 5796 5795 5793 5791 5789 5788 5787 5787 5786 5785 5784 5783 5783 5782 5781 5781 5780 5779 5778 5777 5777 5776 5774 5773 5772 5771 5770
5810 5793 5777 5768 5774 5788 5798 5802 5802 5796 5796 5799 5796 5786 5787 5800 5806 5805 5802 5800 5797 5795 5795 5794 5793 5791 5789 5788 5787 5786 5786 5785 5784 5783 5782 5781 5781 5780 5779 5778 5778 5777 5777 5776 5774 5773 5772 5771 5770
5798 5788 5769 5764 5777 5793 5802 5808 5804 5798 5797 5798 5795 5786 5787 5800 5801 5801 5801 5799 5797 5795 5794 5793 5792 5790 5789 5788 5787 5786 5785 5784 5783 5782 5782 5782 5781 5780 5779 5778 5778 5777 5777 5776 5774 5773 5772 5771 5770
5794 5783 5772 5773 5777 5788 5802 5810 5803 5798 5795 5797 5800 5786 5788 5796 5800 5802 5800 5798 5796 5795 5793 5792 5791 5790 5789 5788 5787 5786 5785 5784 5783 5782 5782 5781 5781 5780 5779 5779 5778 5777 5777 5776 5775 5774 5773 5772 5771
5805 5787 5777 5776 5779 5787 5806 5810 5809 5803 5800 5809 5806 5789 5786 5797 5801 5800 5798 5796 5794 5793 5792 5791 5790 5789 5788 5787 5786 5786 5785 5783 5783 5782 5782 5781 5780 5780 5779 5778 5778 5778 5777 5776 5775 5774 5774 5773 5772
5811 5783 5773 5782 5787 5795 5810 5808 5810 5815 5808 5808 5808 5804 5804 5805 5802 5797 5793 5791 5791 5791 5790 5790 5789 5788 5787 5787 5786 5785 5784 5783 5782 5781 5781 5780 5780 5779 5778 5778 5778 5778 5777 5776 5776 5775 5774 5773 5773
5801 5779 5788 5804 5807 5807 5811 5810 5810 5807 5802 5802 5803 5806 5808 5804 5799 5794 5790 5788 5788 5788 5789 5789 5788 5787 5787 5786 5785 5784 5783 5782 5782 5781 5780 5779 5779 5778 5778 5778 5778 5777 5777 5776 5776 5775 5774 5773 5773
5804 5794 5806 5815 5819 5817 5813 5813 5816 5805 5797 5802 5802 5802 5803 5801 5797 5794 5792 5791 5790 5790 5790 5790 5788 5787 5786 5785 5784 5783 5782 5781 5781 5780 5779 5778 5778 5777 5777 5776 5776 5776 5776 5776 5775 5774 5773 5773 5772
5807 5811 5817 5821 5826 5820 5816 5815 5813 5810 5811 5819 5817 5812 5806 5800 5797 5795 5793 5792 5791 5790 5790 5790 5789 5787 5786 5785 5783 5782 5781 5780 5779 5779 5778 5777 5777 5776 5775 5775 5775 5775 5774 5774 5774 5773 5773 5772 5771
5810 5814 5823 5827 5827 5824 5821 5816 5814 5814 5822 5823 5818 5811 5806 5802 5800 5799 5798 5795 5792 5790 5790 5790 5789 5787 5785 5784 5783 5782 5780 5779 5779 5778 5778 5777 5776 5775 5775 5774 5774 5774 5773 5773 5772 5771 5771 5770 5770
5817 5818 5821 5825 5825 5826 5819 5817 5815 5816 5823 5819 5814 5810 5808 5805 5803 5800 5797 5794 5793 5792 5791 5790 5789 5787 5785 5783 5782 5781 5780 5779 5778 5778 5778 5777 5776 5775 5774 5773 5773 5773 5773 5772 5771 5770 5769 5769 5768
5821 5812 5814 5820 5823 5824 5821 5807 5812 5820 5821 5814 5812 5810 5809 5807 5805 5802 5800 5798 5796 5794 5793 5791 5789 5788 5785 5784 5782 5781 5780 5779 5778 5778 5777 5777 5776 5775 5774 5773 5772 5772 5772 5771 5770 5769 5768 5768 5767
5812 5800 5793 5812 5820 5823 5812 5794 5814 5822 5817 5810 5810 5810 5808 5807 5806 5806 5804 5801 5799 5796 5793 5792 5791 5788 5785 5784 5782 5781 5780 5779 5778 5777 5776 5776 5775 5774 5773 5772 5771 5771 5770 5769 5768 5767 5765 5765 5764
5792 5783 5787 5803 5818 5818 5808 5798 5815 5821 5816 5810 5809 5809 5807 5806 5806 5806 5806 5803 5801 5797 5794 5791 5791 5788 5786 5784 5781 5780 5779 5778 5777 5776 5775 5775 5774 5773 5772 5771 5770 5769 5768 5767 5767 5765 5763 5762 5761
5780 5783 5787 5793 5811 5812 5803 5802 5812 5817 5815 5810 5809 5807 5805 5804 5805 5807 5807 5805 5802 5799 5795 5792 5790 5788 5785 5782 5780 5778 5777 5776 5775 5775 5774 5773 5773 5772 5771 5769 5768 5767 5765 5764 5763 5762 5761 5760 5759
5797 5789 5787 5799 5814 5807 5800 5801 5808 5813 5811 5807 5805 5805 5804 5805 5808 5809 5807 5805 5801 5798 5794 5791 5789 5786 5784 5780 5777 5774 5773 5774 5773 5773 5773 5772 5772 5771 5769 5768 5766 5764 5763 5762 5761 5760 5758 5756 5755
5796 5788 5789 5800 5812 5806 5797 5799 5808 5810 5810 5810 5808 5805 5805 5804 5803 5804 5804 5803 5800 5797 5794 5791 5788 5786 5783 5781 5779 5776 5774 5773 5772 5772 5772 5771 5770 5769 5768 5765 5763 5762 5760 5758 5758 5756 5754 5752 5752
5795 5790 5792 5792 5801 5803 5795 5790 5798 5807 5811 5811 5811 5810 5808 5806 5802 5801 5801 5800 5798 5796 5794 5792 5788 5785 5783 5780 5777 5775 5772 5770 5769 5768 5768 5769 5768 5767 5765 5763 5761 5759 5757 5755 5754 5753 5750 5747 5747
5788 5806 5803 5797 5785 5775 5784 5763 5788 5796 5799 5804 5807 5808 5808 5807 5805 5802 5800 5798 5797 5796 5795 5791 5787 5784 5782 5779 5776 5772 5768 5764 5765 5765 5765 5765 5765 5764 5763 5761 5759 5757 5755 5753 5752 5751 5748 5745 5742
5801 5811 5803 5794 5781 5770 5773 5762 5774 5789 5790 5799 5806 5808 5809 5808 5806 5804 5802 5799 5798 5797 5794 5790 5786 5783 5780 5777 5774 5771 5768 5766 5764 5763 5762 5761 5761 5761 5760 5758 5756 5754 5752 5750 5749 5747 5745 5743 5740
5810 5800 5789 5776 5766 5753 5765 5758 5765 5781 5792 5800 5807 5809 5810 5809 5807 5805 5804 5801 5798 5797 5793 5789 5785 5782 5779 5776 5772 5769 5766 5764 5762 5759 5758 5757 5757 5756 5755 5754 5752 5751 5749 5747 5745 5744 5742 5740 5737
5799 5774 5750 5746 5738 5744 5764 5759 5768 5797 5804 5806 5807 5808 5810 5809 5806 5804 5802 5799 5796 5794 5791 5788 5784 5780 5777 5774 5771 5768 5765 5763 5761 5758 5756 5754 5752 5752 5751 5751 5749 5747 5746 5744 5742 5740 5738 5736 5734
5787 5776 5749 5736 5732 5742 5757 5754 5779 5804 5809 5810 5810 5809 5808 5806 5805 5803 5801 5799 5796 5794 5790 5787 5782 5779 5776 5773 5770 5767 5765 5762 5760 5758 5755 5753 5751 5750 5749 5747 5745 5743 5742 5740 5738 5736 5733 5732 5729
5781 5771 5776 5752 5744 5737 5745 5761 5783 5801 5801 5803 5804 5803 5802 5802 5802 5801 5799 5797 5795 5792 5788 5785 5780 5777 5774 5771 5769 5766 5763 5761 5758 5756 5754 5751 5749 5748 5746 5744 5742 5739 5737 5736 5734 5731 5729 5727 5725
5793 5777 5759 5744 5729 5726 5741 5751 5762 5782 5789 5795 5797 5798 5799 5799 5798 5796 5794 5793 5792 5790 5786 5783 5778 5774 5772 5770 5767 5765 5761 5758 5756 5753 5751 5749 5747 5744 5742 5740 5738 5736 5734 5731 5728 5726 5724 5721 5720
5777 5770 5758 5743 5742 5728 5725 5746 5785 5787 5792 5791 5795 5798 5798 5796 5794 5793 5791 5790 5788 5785 5782 5779 5774 5771 5769 5767 5764 5761 5758 5755 5752 5750 5748 5746 5744 5741 5738 5735 5733 5731 5729 5726 5724 5721 5719 5717 5715
5784 5774 5759 5747 5737 5733 5730 5748 5794 5793 5794 5793 5792 5794 5795 5794 5792 5791 5788 5784 5782 5779 5777 5774 5771 5768 5766 5764 5760 5757 5754 5751 5748 5746 5745 5743 5740 5737 5734 5731 5728 5726 5724 5721 5718 5716 5714 5712 5710